Flag for Switzerland Weather past 2 weeks in Richterswil, Zurich, Switzerland

Now
85 °F

Pleasantly warm.


Feels Like: 84 °F
Forecast: 60 / 93 °F
Wind: 3 mph from Northeast

Location: Zurich Town / Ville.

Current Time: Jul 1, 2015 at 3:11:45 PM

Latest Report: Jul 1, 2015 at 2:00 PM


Visibility: N/A

Pressure: 30.01 "Hg

Humidity: 37%

Dew point: 56 °F

Location of RichterswilLocation

Historic Weather in Richterswil — Graph

°F

Richterswil temperature yesterday

Maximum temperature yesterday: 85 °F (at 4:00 PM)
Minimum temperature yesterday: 60 °F (at 7:00 AM)
Average temperature yesterday: 72 °F

Past Weeks' High & Low Weather Summary

 TemperatureHumidityPressure
High85 °F (Jun 30, 4:00 PM)98% (Jun 18, 8:00 PM)30.23 "Hg (Jun 18, 8:00 PM)
Low47 °F (Jun 24, 5:00 AM)26% (Jun 25, 8:00 PM)29.70 "Hg (Jun 22, 10:00 PM)
Average63 °F67%30.09 "Hg
* Reported Jun 16 1:00 PM — Jul 1 1:00 PM, Richterswil, Weather by CustomWeather, © 2015

Note: Actual official high and low records may vary slightly from our data, if they occured in-between our weather recording intervals... More about our weather records

Advertising

Richterswil weather history for previous 24 hours

 ConditionsComfort  
Time TempWeatherWind HumidityBarometerVisibility
1:00 PM
Wed, Jul 1
83 °FWarm.3 mph46%30.02 "HgN/A
12:00 PM81 °FWarm.2 mph51%30.04 "HgN/A
11:00 AM78 °FWarm.2 mph53%30.05 "HgN/A
10:00 AM76 °FMild.2 mph54%30.06 "HgN/A
9:00 AM71 °FMild.1 mph62%30.08 "HgN/A
8:00 AM67 °FMild.1 mph70%30.09 "HgN/A
7:00 AM64 °FMild.2 mph77%30.10 "HgN/A
6:00 AM64 °FMild.6 mph73%30.09 "HgN/A
4:00 AM65 °FMild.3 mph69%30.07 "HgN/A
3:00 AM63 °FMild.2 mph73%30.08 "HgN/A
2:00 AM66 °FMild.3 mph64%30.07 "HgN/A
1:00 AM69 °FMild.3 mph56%30.06 "HgN/A
12:00 AM73 °FMild.7 mph49%30.05 "HgN/A
11:00 PM
Tue, Jun 30
73 °FMild.6 mph46%30.05 "HgN/A
10:00 PM73 °FMild.7 mph43%30.04 "HgN/A
9:00 PM75 °FMild.5 mph40%30.02 "HgN/A
8:00 PM80 °FSunny.3 mph33%30.00 "HgN/A
6:00 PM85 °FPleasantly warm.7 mph32%29.99 "HgN/A
4:00 PM85 °FPleasantly warm.5 mph34%30.01 "HgN/A
3:00 PM84 °FPleasantly warm.6 mph36%30.02 "HgN/A
Weather by CustomWeather, © 2015

See weather overviewHow to use our weather pages